Location: Devore Heights
(34.2372°N, 117.4156°W)
Time: 22:16:09
(UTC+00:00)

Transit 4A - Pass Details

Date: 18 September 2024
Orbit: 864 x 978 km, 66.8° (Epoch: 13 October)

Event Time Altitude Azimuth Distance (km) Brightness Sun altitude
Rises 17:36:20 0° 348° (NNW) 3,607 10.6 45.8°
Reaches altitude 10° 17:39:47 10° 7° (N) 2,680 10.2 46.3°
Maximum altitude 17:43:56 18° 49° (NE) 2,171 10.1 47.0°
Drops below altitude 10° 17:48:06 10° 91° (E) 2,710 11.0 47.6°
Sets 17:51:36 0° 109° (ESE) 3,663 11.6 48.1°
